Regional Weather Roundup
Issued by NWS

Home | Current Version | Previous Version | Text Only | Print | Product List | Glossary On
Versions: 1 2 3 4 5 6 7 8 9 10 11 12 13 14 15 16 17 18 19 20 21 22 23 24 25 26 27
000
ASPQ40 PGUM 190012
RWRPQ
WEATHER ROUNDUP FOR THE MARIANAS AND MICRONESIA
NATIONAL WEATHER SERVICE TIYAN GU
1000 AM GSST SAT APR 19 2014

GUZ001>004-190100-
MARIANA ISLANDS-

CITY           SKY/WX    TMP DP  RH WIND       PRES   REMARKS
GUAM AIRPORT   PTSUNNY   84  77  79 E16G22    29.82F HX  94
ANDERSEN AFB   PTSUNNY   84  79  84 E14       29.83F HX  96
ROTA AIRPORT   MOSUNNY   82  77  83 SE12      29.84F HX  91
TINIAN AP      LGT RAIN  82  77  83 E9        29.83S HX  91
SAIPAN AP      MOSUNNY   86  77  74 E13       29.83F HX  97

$$

PMZ161-190100-
REPUBLIC OF PALAU-

CITY           SKY/WX    TMP DP  RH WIND       PRES   REMARKS
KOROR AP       PTSUNNY   84  79  84 W8        29.80R HX  96
KOROR WSO      PTSUNNY   84  77  79 NW7       29.80S HX  94

$$

PMZ171>174-190100-
FEDERATED STATES OF MICRONESIA-

CITY           SKY/WX    TMP DP  RH WIND       PRES   REMARKS
YAP AIRPORT    LGT RAIN  79  77  94 VRB6      29.82R
CHUUK AP       CLOUDY    86  81  84 VRB3      29.83F HX 102
POHNPEI AP     CLOUDY    84  77  79 E9        29.84F HX  94
POHNPEI WSO    CLOUDY    84  77  79 NE5       29.89F HX  94
KOSRAE AP      NOT AVBL

$$

PMZ181-190100-
REPUBLIC OF THE MARSHALL ISLANDS-

CITY           SKY/WX    TMP DP  RH WIND       PRES   REMARKS
KWAJALEIN AP   PTSUNNY   86  73  66 E20       29.86F HX  93
MAJURO AP      CLOUDY    86  75  70 NE17      29.84S HX  95
MAJURO WSO     CLOUDY    86  77  74 NE13      29.83F HX  97

$$




USA.gov is the U.S. government's official web portal to all federal, state and local government web resources and services.